DW0156 Weather Reports


time (UTC)temp
C
wind
direction
speed
KPH
gust
KPH
rain 1hr
cm
rain 24hr
cm
rain mn
cm
humidity
%
barometer
mb
20260831092026 16 263 0.0 0.0 0.00 0.00 0.00 68 1024.9
20260831091517 16 263 0.0 0.0 0.00 0.00 0.00 67 1024.9
20260831091002 16 263 0.0 0.0 0.00 0.00 0.00 67 1024.9
20260831090445 16 263 0.0 0.0 0.00 0.00 0.00 67 1024.9
20260831085946 17 263 0.0 0.0 0.00 0.00 0.00 66 1024.9
20260831085435 17 263 0.0 0.0 0.00 0.00 0.00 65 1025.0
20260831084930 17 263 0.0 0.0 0.00 0.00 0.00 64 1025.0
20260831083816 18 263 0.0 0.0 0.00 0.00 0.00 62 1025.1
20260831082631 18 263 0.0 0.0 0.00 0.00 0.00 61 1025.2
20260831082113 18 263 0.0 0.0 0.00 0.00 0.00 61 1025.2
20260831081555 18 263 0.0 4.8 0.00 0.00 0.00 61 1025.2
20260831081042 18 263 1.6 6.4 0.00 0.00 0.00 60 1025.1
20260831080535 18 263 1.6 6.4 0.00 0.00 0.00 60 1025.1
20260831080026 19 263 3.2 6.4 0.00 0.00 0.00 59 1025.1
20260831075529 19 263 1.6 6.4 0.00 0.00 0.00 59 1024.9
20260831075037 19 263 1.6 4.8 0.00 0.00 0.00 59 1024.9
20260831074523 19 263 1.6 4.8 0.00 0.00 0.00 59 1024.9
20260831074011 19 263 3.2 4.8 0.00 0.00 0.00 58 1025.0
20260831073509 19 263 3.2 6.4 0.00 0.00 0.00 58 1025.0
20260831072352 20 263 1.6 6.4 0.00 0.00 0.00 58 1025.0
20260831071850 20 263 1.6 0.0 0.00 0.00 0.00 57 1025.0
20260831071358 20 263 3.2 6.4 0.00 0.00 0.00 58 1025.1
20260831070904 20 263 1.6 6.4 0.00 0.00 0.00 57 1025.1
20260831070354 19 263 1.6 6.4 0.00 0.00 0.00 58 1025.1
20260831065241 19 263 3.2 9.7 0.00 0.00 0.00 59 1025.3
20260831064735 19 263 3.2 9.7 0.00 0.00 0.00 59 1025.3
20260831064234 19 263 3.2 11.3 0.00 0.00 0.00 58 1025.4
20260831063112 19 263 3.2 11.3 0.00 0.00 0.00 59 1025.4
20260831062621 19 263 4.8 12.9 0.00 0.00 0.00 59 1025.5
20260831062128 20 263 6.4 12.9 0.00 0.00 0.00 58 1025.5
20260831061628 20 263 4.8 12.9 0.00 0.00 0.00 58 1025.5
20260831061108 20 263 4.8 12.9 0.00 0.00 0.00 57 1025.7
20260831060555 20 263 4.8 12.9 0.00 0.00 0.00 57 1025.7
20260831060044 20 263 4.8 12.9 0.00 0.00 0.00 56 1025.7
20260831055553 20 263 4.8 12.9 0.00 0.00 0.00 56 1025.6
20260831055048 20 263 4.8 9.7 0.00 0.00 0.00 55 1025.6
20260831053859 21 263 6.4 16.1 0.00 0.00 0.00 54 1025.6
20260831053400 21 263 4.8 16.1 0.00 0.00 0.00 55 1025.6
20260831052842 21 263 6.4 14.5 0.00 0.00 0.00 54 1025.8
20260831052351 21 263 4.8 14.5 0.00 0.00 0.00 53 1025.8
20260831051831 21 263 4.8 14.5 0.00 0.00 0.00 55 1025.8
20260831051340 21 263 6.4 14.5 0.00 0.00 0.00 53 1025.9
20260831050154 21 263 3.2 12.9 0.00 0.00 0.00 52 1025.9
20260831045651 21 263 3.2 12.9 0.00 0.00 0.00 50 1026.1
20260831044509 20 263 4.8 12.9 0.00 0.00 0.00 54 1026.1
20260831044011 20 263 4.8 16.1 0.00 0.00 0.00 53 1026.4
20260831043505 20 263 4.8 16.1 0.00 0.00 0.00 54 1026.4
20260831042959 20 263 8.0 16.1 0.00 0.00 0.00 54 1026.4
20260831041844 21 263 4.8 14.5 0.00 0.00 0.00 52 1026.8
20260831041329 21 263 4.8 12.9 0.00 0.00 0.00 52 1027.0
20260831040818 21 263 4.8 12.9 0.00 0.00 0.00 53 1027.0
20260831040315 20 263 4.8 14.5 0.00 0.00 0.00 53 1027.0
20260831035757 20 263 4.8 14.5 0.00 0.00 0.00 52 1027.4
20260831035250 20 263 4.8 14.5 0.00 0.00 0.00 52 1027.4
20260831034739 21 263 4.8 14.5 0.00 0.00 0.00 51 1027.4
20260831034235 21 263 4.8 11.3 0.00 0.00 0.00 50 1027.6
20260831033105 21 263 1.6 8.0 0.00 0.00 0.00 49 1027.6
20260831032555 20 263 3.2 9.7 0.00 0.00 0.00 50 1028.0
20260831032046 20 263 4.8 9.7 0.00 0.00 0.00 51 1028.0
20260831031536 20 263 3.2 9.7 0.00 0.00 0.00 52 1028.0
20260831031033 20 263 3.2 9.7 0.00 0.00 0.00 51 1028.4
20260831030520 20 263 4.8 12.9 0.00 0.00 0.00 52 1028.4
20260831030005 20 263 3.2 12.9 0.00 0.00 0.00 52 1028.4
20260831025503 20 263 4.8 12.9 0.00 0.00 0.00 51 1028.6
20260831024950 20 263 3.2 12.9 0.00 0.00 0.00 50 1028.6
20260831024447 21 263 1.6 8.0 0.00 0.00 0.00 50 1028.6
20260831023939 21 263 1.6 8.0 0.00 0.00 0.00 49 1029.0
20260831023444 21 263 1.6 8.0 0.00 0.00 0.00 51 1029.0
20260831022935 20 263 1.6 8.0 0.00 0.00 0.00 51 1029.0
20260831022416 20 263 1.6 8.0 0.00 0.00 0.00 53 1029.2
20260831021240 19 263 1.6 9.7 0.00 0.00 0.00 57 1029.5
20260831015522 18 263 1.6 6.4 0.00 0.00 0.00 59 1029.6
20260831015016 18 263 3.2 9.7 0.00 0.00 0.00 59 1029.6
20260831014525 18 263 1.6 9.7 0.00 0.00 0.00 59 1029.6
20260831014031 18 263 3.2 9.7 0.00 0.00 0.00 60 1030.0
20260831013536 18 263 3.2 9.7 0.00 0.00 0.00 60 1030.0
20260831013023 18 263 1.6 8.0 0.00 0.00 0.00 60 1030.0
20260831012531 18 263 1.6 8.0 0.00 0.00 0.00 60 1030.1
20260831005521 17 263 1.6 8.0 0.00 0.00 0.00 65 1030.1
20260831004341 17 263 0.0 4.8 0.00 0.00 0.00 64 1030.1
20260831003845 17 263 0.0 4.8 0.00 0.00 0.00 66 1030.1
20260831003328 16 263 0.0 0.0 0.00 0.00 0.00 66 1030.1
20260831002814 16 263 0.0 3.2 0.00 0.00 0.00 67 1030.1
20260831002258 16 263 0.0 3.2 0.00 0.00 0.00 67 1030.1
20260831001743 16 263 0.0 1.6 0.00 0.00 0.00 68 1030.1
20260831001247 15 263 0.0 0.0 0.00 0.00 0.00 69 1030.1
20260831000752 15 263 0.0 4.8 0.00 0.00 0.00 69 1030.1
20260830235648 15 263 1.6 4.8 0.00 0.00 0.00 70 1030.2
20260830235140 15 263 0.0 3.2 0.00 0.00 0.00 70 1030.2
20260830234630 15 263 0.0 3.2 0.00 0.00 0.00 72 1030.2
20260830234126 14 263 0.0 0.0 0.00 0.00 0.00 73 1030.3
20260830233610 14 263 0.0 3.2 0.00 0.00 0.00 73 1030.3
20260830233120 14 263 0.0 3.2 0.00 0.00 0.00 74 1030.3
20260830232613 13 263 0.0 3.2 0.00 0.00 0.00 74 1030.3
20260830232121 13 263 0.0 3.2 0.00 0.00 0.00 75 1030.3
20260830230941 13 263 0.0 1.6 0.00 0.00 0.00 76 1030.3
20260830230422 13 263 0.0 0.0 0.00 0.00 0.00 77 1030.3
20260830225919 13 263 0.0 0.0 0.00 0.00 0.00 78 1030.3
20260830225420 13 263 0.0 1.6 0.00 0.00 0.00 80 1030.3
20260830224912 12 263 0.0 0.0 0.00 0.00 0.00 81 1030.3
20260830224357 12 263 0.0 0.0 0.00 0.00 0.00 82 1030.3
20260830223840 11 263 0.0 0.0 0.00 0.00 0.00 84 1030.3
20260830223339 11 263 0.0 0.0 0.00 0.00 0.00 85 1030.3
20260830222848 10 263 0.0 3.2 0.00 0.00 0.00 86 1030.4
20260830221715 9 263 0.0 0.0 0.00 0.00 0.00 87 1030.4
20260830221215 8 263 0.0 0.0 0.00 0.00 0.00 87 1030.3
20260830220057 8 263 0.0 0.0 0.00 0.00 0.00 87 1030.3
20260830215555 8 263 0.0 0.0 0.00 0.00 0.00 87 1030.2
20260830215055 7 263 0.0 1.6 0.00 0.00 0.00 87 1030.2
20260830214545 7 263 0.0 3.2 0.00 0.00 0.00 87 1030.2
20260830214028 7 263 0.0 0.0 0.00 0.00 0.00 87 1030.2
20260830213509 7 263 1.6 3.2 0.00 0.00 0.00 87 1030.2
20260830212956 7 263 0.0 3.2 0.00 0.00 0.00 87 1030.2
20260830212449 6 263 0.0 0.0 0.00 0.00 0.00 87 1030.2
20260830211954 6 263 0.0 1.6 0.00 0.00 0.00 86 1030.2
20260830211457 6 263 0.0 0.0 0.00 0.00 0.00 86 1030.2
20260830210338 6 263 0.0 0.0 0.00 0.00 0.00 86 1030.2
20260830205820 6 263 0.0 0.0 0.00 0.00 0.00 86 1030.2
20260830205315 6 263 0.0 0.0 0.00 0.00 0.00 85 1030.2
20260830204803 6 263 0.0 0.0 0.00 0.00 0.00 85 1030.2
20260830204252 6 263 0.0 0.0 0.00 0.00 0.00 85 1030.1
20260830203758 6 263 0.0 0.0 0.00 0.00 0.00 85 1030.1
20260830203259 7 263 0.0 0.0 0.00 0.00 0.00 85 1030.1
20260830202807 7 263 0.0 0.0 0.00 0.00 0.00 85 1029.9
20260830202306 7 263 0.0 0.0 0.00 0.00 0.00 85 1029.9
20260830201805 7 263 0.0 0.0 0.00 0.00 0.00 85 1029.9
20260830200656 7 263 0.0 0.0 0.00 0.00 0.00 84 1029.7
20260830200152 7 263 0.0 1.6 0.00 0.00 0.00 85 1029.7
20260830195657 7 263 0.0 0.0 0.00 0.00 0.00 85 1029.7
20260830195142 7 263 0.0 0.0 0.00 0.00 0.00 85 1029.7
20260830194638 7 263 0.0 0.0 0.00 0.00 0.00 85 1029.7
20260830193509 7 263 0.0 0.0 0.00 0.00 0.00 85 1029.7
20260830192324 7 263 0.0 0.0 0.00 0.00 0.00 85 1029.6
20260830191827 7 263 0.0 0.0 0.00 0.00 0.00 85 1029.6
20260830191326 7 263 0.0 0.0 0.00 0.00 0.00 85 1029.6
20260830190809 7 263 0.0 0.0 0.00 0.00 0.00 85 1029.6
20260830190249 7 263 0.0 0.0 0.00 0.00 0.00 85 1029.6
20260830185734 7 263 0.0 0.0 0.00 0.00 0.00 85 1029.8
20260830184610 7 263 0.0 0.0 0.00 0.00 0.00 85 1029.8
20260830184101 7 263 0.0 0.0 0.00 0.00 0.00 85 1029.9
20260830182934 7 263 0.0 0.0 0.00 0.00 0.00 85 1029.9
20260830182414 7 263 0.0 0.0 0.00 0.00 0.00 85 1030.1
20260830181303 7 263 0.0 0.0 0.00 0.00 0.00 85 1030.1
20260830180755 7 263 0.0 0.0 0.00 0.00 0.00 85 1030.1
20260830174312 7 263 0.0 3.2 0.00 0.00 0.00 86 1030.4
20260830171906 7 263 1.6 3.2 0.00 0.00 0.00 86 1030.6
20260830171349 7 263 1.6 3.2 0.00 0.00 0.00 86 1030.7
20260830170835 7 263 0.0 1.6 0.00 0.00 0.00 86 1030.7
20260830170317 7 263 0.0 0.0 0.00 0.00 0.00 86 1030.7
20260830165757 7 263 1.6 3.2 0.00 0.00 0.00 86 1030.8
20260830165300 7 263 0.0 3.2 0.00 0.00 0.00 86 1030.8
20260830164154 7 263 0.0 3.2 0.00 0.00 0.00 86 1031.1
20260830163657 7 263 0.0 3.2 0.00 0.00 0.00 86 1031.1
20260830162547 7 263 0.0 0.0 0.00 0.00 0.00 85 1031.2
20260830162034 7 263 0.0 3.2 0.00 0.00 0.00 85 1031.2
20260830160900 7 263 0.0 0.0 0.00 0.00 0.00 85 1031.3
20260830155728 7 263 0.0 0.0 0.00 0.00 0.00 85 1031.5
20260830155217 7 263 0.0 0.0 0.00 0.00 0.00 85 1031.5
20260830154719 7 263 0.0 0.0 0.00 0.00 0.00 85 1031.5
20260830154202 7 263 0.0 0.0 0.00 0.00 0.00 84 1031.6
20260830153653 8 263 0.0 0.0 0.00 0.00 0.00 84 1031.6
20260830153157 8 263 0.0 0.0 0.00 0.00 0.00 84 1031.6
20260830152639 8 263 0.0 0.0 0.00 0.00 0.00 84 1031.7
20260830151521 8 263 0.0 0.0 0.00 0.00 0.00 84 1031.7
20260830150356 8 263 0.0 0.0 0.00 0.00 0.00 84 1031.6
20260830145839 8 263 0.0 0.0 0.00 0.00 0.00 84 1031.6
20260830145342 8 263 0.0 0.0 0.00 0.00 0.00 84 1031.6
20260830144218 8 263 0.0 0.0 0.00 0.00 0.00 84 1031.7
20260830143717 8 263 0.0 0.0 0.00 0.00 0.00 84 1031.7
20260830143219 8 263 0.0 0.0 0.00 0.00 0.00 84 1031.7
20260830142708 8 263 0.0 0.0 0.00 0.00 0.00 84 1031.7
20260830142201 8 263 0.0 0.0 0.00 0.00 0.00 84 1031.7
20260830141709 8 263 0.0 0.0 0.00 0.00 0.00 84 1031.7
20260830141210 8 263 0.0 0.0 0.00 0.00 0.00 84 1031.9
20260830140658 8 263 0.0 0.0 0.00 0.00 0.00 83 1031.9
20260830135525 9 263 0.0 0.0 0.00 0.00 0.00 84 1032.2
20260830135024 9 263 0.0 0.0 0.00 0.00 0.00 84 1032.2
20260830134512 9 263 0.0 1.6 0.00 0.00 0.00 83 1032.2
20260830134016 9 263 0.0 0.0 0.00 0.00 0.00 83 1032.2
20260830133522 9 263 0.0 0.0 0.00 0.00 0.00 83 1032.2
20260830132416 10 263 0.0 0.0 0.00 0.00 0.00 83 1032.2
20260830131904 10 263 0.0 0.0 0.00 0.00 0.00 83 1032.2
20260830131400 10 263 0.0 0.0 0.00 0.00 0.00 82 1032.3
20260830130855 10 263 0.0 0.0 0.00 0.00 0.00 82 1032.3
20260830130339 10 263 0.0 0.0 0.00 0.00 0.00 82 1032.3
20260830125831 10 263 0.0 0.0 0.00 0.00 0.00 81 1032.2
20260830124023 11 263 0.0 0.0 0.00 0.00 0.00 81 1032.1
20260830123510 11 263 0.0 0.0 0.00 0.00 0.00 80 1032.1
20260830122950 11 263 0.0 0.0 0.00 0.00 0.00 79 1032.1
20260830122446 11 263 0.0 0.0 0.00 0.00 0.00 79 1032.2
20260830121946 11 263 0.0 0.0 0.00 0.00 0.00 78 1032.2
20260830121453 11 263 0.0 0.0 0.00 0.00 0.00 78 1032.2
20260830120948 12 263 0.0 0.0 0.00 0.00 0.00 78 1032.0
20260830115816 12 263 0.0 0.0 0.00 0.00 0.00 78 1032.0
20260830115318 12 263 0.0 0.0 0.00 0.00 0.00 76 1032.0
20260830114801 12 263 0.0 0.0 0.00 0.00 0.00 75 1032.0
20260830114303 13 263 0.0 0.0 0.00 0.00 0.00 75 1031.7
20260830113148 13 263 0.0 0.0 0.00 0.00 0.00 74 1031.7
20260830112629 13 263 0.0 0.0 0.00 0.00 0.00 74 1031.6
20260830112137 13 263 0.0 0.0 0.00 0.00 0.00 74 1031.6
20260830111032 13 263 3.2 9.7 0.00 0.00 0.00 74 1031.6
20260830110518 13 263 3.2 9.7 0.00 0.00 0.00 74 1031.6
20260830110004 13 263 3.2 9.7 0.00 0.00 0.00 75 1031.6
20260830105454 13 263 1.6 6.4 0.00 0.00 0.00 75 1031.5
20260830104346 13 263 0.0 4.8 0.00 0.00 0.00 74 1031.5
20260830103837 13 263 0.0 1.6 0.00 0.00 0.00 73 1031.5
20260830103327 13 263 0.0 0.0 0.00 0.00 0.00 72 1031.5
20260830102828 13 263 0.0 0.0 0.00 0.00 0.00 72 1031.3
20260830102331 14 263 0.0 0.0 0.00 0.00 0.00 71 1031.3
20260830101838 14 263 0.0 0.0 0.00 0.00 0.00 71 1031.3
20260830101346 14 263 0.0 0.0 0.00 0.00 0.00 71 1031.2
20260830100839 14 263 0.0 0.0 0.00 0.00 0.00 71 1031.2
20260830100349 15 263 0.0 0.0 0.00 0.00 0.00 71 1031.2
20260830093949 15 263 1.6 8.0 0.00 0.00 0.00 71 1030.9
20260830093449 15 263 3.2 8.0 0.00 0.00 0.00 71 1030.9
20260830092943 15 263 1.6 8.0 0.00 0.00 0.00 72 1030.9